Regional Weather Roundup
Issued by NWS Sterling, VA

Home | Current Version | Previous Version | Text Only | Print | Product List | Glossary On
Versions: 1 2 3 4 5 6 7 8 9 10 11 12 13 14 15 16 17 18 19 20 21 22 23 24 25 26 27 28 29 30 31 32 33 34 35 36 37 38 39 40 41 42 43 44 45 46 47 48 49 50
000
ASUS41 KLWX 042010
RWRLWX

REGIONAL WEATHER ROUNDUP
NATIONAL WEATHER SERVICE BALTIMORE MD/WASHINGTON DC
400 PM EDT SAT JUL 04 2015

Note: "FAIR" indicates few or no clouds below 12,000 feet
with no significant weather and/or obstructions to visibility.
 TC=TEMPERATURE CELSIUS

 * =Non NWS site. Station does not report precipitation (e.g. rain,
    snow, etc.), thunder, or fog.

DCZ001-MDZ009-015-VAZ040>042-051-053>054-042100-
WASHINGTON METRO

CITY           SKY/WX    TMP DP  RH WIND       PRES   REMARKS
WASHINGTON NAT CLOUDY    83  70  64 CALM      29.90S
DULLES         CLOUDY    75  65  70 N5G23     29.92R
ANDREWS AFB    PTSUNNY   79  74  82 SE3       29.90R
FT BELVOIR     MOSUNNY   81  71  69 S5        29.89S
QUANTICO       MOSUNNY   81  72  74 S10       29.89F
LEESBURG*      TSTM      70  70 100 S7        29.93R VSB 1
MANASSAS*      LGT RAIN  75  70  83 E5          N/A
GAITHERSBURG*  PTSUNNY   72  68  88 CALM      29.96R THUNDER

$$

MDZ006>007-011-014-042100-
BALTIMORE METRO

CITY           SKY/WX    TMP DP  RH WIND       PRES   REMARKS
BWI AIRPORT    CLOUDY    75  68  78 E8        29.91S
MD SCIENCE CTR   N/A     73  67  81 MISG      29.92S
MARTIN STATE   PTSUNNY   73  70  88 CALM      29.94S
ANNAPOLIS      MOSUNNY   76  68  76 E6        29.91S
FORT MEADE*    PTSUNNY   75  68  78 E8        29.93S

$$

MDZ012-015-019>023-042100-
MARYLAND EASTERN SHORE

CITY           SKY/WX    TMP DP  RH WIND       PRES   REMARKS
OCEAN CITY     PTSUNNY   77  65  66 NE13      29.91S
SALISBURY      RAIN      76  71  85 NE13      29.90S
BAY BRIDGE AP*   N/A     77  68  73 E6        29.91S
EASTON*        PTSUNNY   81  72  74 E6        29.95S

$$

MDZ017>025-042100-
SOUTHERN MARYLAND

CITY           SKY/WX    TMP DP  RH WIND       PRES   REMARKS
PATUXENT RIVER PTSUNNY   78  69  73 E6        29.90S
ST INIGOES     NOT AVBL
LEONARDTOWN*   CLOUDY    81  68  65 W3        29.91S

$$

MDZ003>005-042100-
NORTH CENTRAL MARYLAND

CITY           SKY/WX    TMP DP  RH WIND       PRES   REMARKS
FREDERICK*     CLOUDY    77  72  83 NE3       29.95S
HAGERSTOWN APT PTSUNNY   75  67  76 NE9G22    29.93S
WESTMINSTER*   PTSUNNY   70  66  88 NE3       29.94S

$$

MDZ501>502-042100-
WESTERN MARYLAND

CITY           SKY/WX    TMP DP  RH WIND       PRES   REMARKS
OAKLAND*       PTSUNNY   70 N/A N/A W8        30.05R
CUMBERLAND*    NOT AVBL

$$

VAZ025>031-042100-
SHENANDOAH VALLEY

CITY           SKY/WX    TMP DP  RH WIND       PRES   REMARKS
WINCHESTER*    PTSUNNY   82  66  57 NW7       29.92R
FRONT ROYAL*   CLOUDY    73  70  88 SW3       29.91S
LURAY*         MOCLDY    81  70  69 CALM      29.93S
NEW MARKET*    CLOUDY    80  68  67 N3        29.91R
STAUNTON*      PTSUNNY   83  66  55 W8        29.96S
WAYNESBORO*    FAIR      79  66  63 W7        29.96F

$$

WVZ021-048>050-054>055-042100-
EASTERN WEST VIRGINIA PANHANDLE

CITY           SKY/WX    TMP DP  RH WIND       PRES   REMARKS
MARTINSBURG    CLOUDY    77  68  73 N7        29.93R
PETERSBURG*    PTSUNNY   82  60  46 W9        29.94F

$$

VAZ036>039-050-042100-
CENTRAL FOOTHILLS

CITY           SKY/WX    TMP DP  RH WIND       PRES   REMARKS
CHARLOTTESVILL PTSUNNY   78  67  68 E8        29.90S
CULPEPER*      LGT RAIN  77  72  85 W5        29.91R
ORANGE*        RAIN      75  68  78 N13G25    29.93R
GORDONSVILLE*  CLOUDY    73  72  94 W3        29.92R FOG
WARRENTON*     LGT RAIN  82  74  77 CALM      29.90R

$$

VAZ055>057-042100-
NORTH AND CENTRAL PIEDMONT

CITY           SKY/WX    TMP DP  RH WIND       PRES   REMARKS
FREDERICKSBRG* PTSUNNY   85  71  62 S8        29.88F HX  91
STAFFORD*      PTSUNNY   82  71  68 CALM      29.93S

$$

NCZ024-NYZ072-PAZ021-071-VAZ022-071-042100-
OTHER REGIONAL OBSERVATIONS

CITY           SKY/WX    TMP DP  RH WIND       PRES   REMARKS
NEW YORK CITY  CLOUDY    74  58  57 E6        29.97F
PHILADELPHIA   PTSUNNY   75  61  61 NE12      29.92F
PITTSBURGH     MOSUNNY   80  54  40 NW12      29.97S
ROANOKE        PTSUNNY   78  68  71 N6        29.99R
RICHMOND       PTSUNNY   82  72  71 SW10      29.91S
RALEIGH        PTSUNNY   85  72  65 W13       29.97F HX  91

$$

ANZ530>537-042100-
MARINE OBSERVATIONS

STATION/POSITION TIME  TEMP    WIND        PRES
                       AIR SEA DIR/SP/G
                 (UTC) (F)     (DEG/KT/KT) (MB)
THOMAS PT LIGHT  2000   75 77   40/  5/  6 1013.3F
BALT KEY BRIDGE  1900   72      60/  7/  8 1013.0F
COVE POINT       1900   76      30/  8/  9 1013.3S
LEWISETTA        1900   77 80   40/  3/  5 1012.5R
SOLOMONS ISLAND  1900      80                N/A
PINEY POINT      1900          350/  6/  7   N/A

$$




USA.gov is the U.S. government's official web portal to all federal, state and local government web resources and services.